TimeEST,TemperatureF,Dew PointF,Humidity,Sea Level PressureIn,VisibilityMPH,Wind Direction,Wind SpeedMPH,Gust SpeedMPH,PrecipitationIn,Events,Conditions,WindDirDegrees,DateUTC
12:04 AM,75.2,75.2,100,29.97,10.0,South,9.2,-,N/A,,Scattered Clouds,170,2012-12-11 05:04:00
12:27 AM,77.0,75.2,94,29.97,10.0,SSE,10.4,-,N/A,,Mostly Cloudy,160,2012-12-11 05:27:00
12:42 AM,75.2,75.2,100,29.96,10.0,South,9.2,-,N/A,,Scattered Clouds,170,2012-12-11 05:42:00
12:53 AM,75.9,75.0,97,29.96,10.0,SSE,10.4,-,N/A,,Partly Cloudy,160,2012-12-11 05:53:00
1:53 AM,75.9,75.0,97,29.96,10.0,SSE,10.4,-,N/A,,Partly Cloudy,160,2012-12-11 06:53:00
2:45 AM,75.2,75.2,100,29.96,10.0,South,6.9,18.4,N/A,,Mostly Cloudy,170,2012-12-11 07:45:00
2:53 AM,75.9,75.0,97,29.96,10.0,SSE,9.2,-,N/A,,Mostly Cloudy,160,2012-12-11 07:53:00
3:44 AM,75.2,75.2,100,29.96,10.0,SW,6.9,-,0.00,Rain-Thunderstorm,Light Rain,220,2012-12-11 08:44:00
3:53 AM,75.0,75.0,100,29.97,10.0,SW,15.0,25.3,0.01,Rain-Thunderstorm,Light Rain,230,2012-12-11 08:53:00
4:13 AM,71.6,71.6,100,29.96,2.5,SW,9.2,-,0.25,Rain-Thunderstorm,Rain,230,2012-12-11 09:13:00
4:20 AM,71.6,71.6,100,29.96,6.0,South,10.4,-,0.27,Rain-Thunderstorm,Rain,190,2012-12-11 09:20:00
4:32 AM,69.8,69.8,100,29.94,10.0,South,8.1,-,0.28,Rain,Light Rain,190,2012-12-11 09:32:00
4:53 AM,70.0,70.0,100,29.94,10.0,South,5.8,-,0.28,,Mostly Cloudy,190,2012-12-11 09:53:00
5:53 AM,70.0,70.0,100,29.97,10.0,South,3.5,-,N/A,,Clear,180,2012-12-11 10:53:00
6:53 AM,70.0,70.0,100,29.96,10.0,South,4.6,-,N/A,,Clear,190,2012-12-11 11:53:00
7:53 AM,73.0,73.0,100,30.01,10.0,West,6.9,-,N/A,,Clear,270,2012-12-11 12:53:00
8:53 AM,75.9,75.9,100,30.01,10.0,SSW,9.2,-,N/A,,Clear,210,2012-12-11 13:53:00
9:53 AM,79.0,75.9,90,30.01,10.0,South,10.4,-,N/A,,Clear,190,2012-12-11 14:53:00
10:53 AM,81.0,75.0,82,30.03,10.0,South,11.5,-,N/A,,Partly Cloudy,190,2012-12-11 15:53:00
11:53 AM,82.9,75.0,77,30.01,10.0,SW,9.2,-,N/A,,Scattered Clouds,220,2012-12-11 16:53:00
12:53 PM,82.0,77.0,85,29.97,10.0,SSE,16.1,-,N/A,,Scattered Clouds,150,2012-12-11 17:53:00
1:53 PM,81.0,77.0,88,29.96,10.0,SSE,17.3,24.2,N/A,,Clear,160,2012-12-11 18:53:00
2:53 PM,80.1,75.9,87,29.96,10.0,South,13.8,-,N/A,,Scattered Clouds,170,2012-12-11 19:53:00
3:53 PM,80.1,75.9,87,29.96,10.0,SSE,13.8,-,N/A,,Clear,160,2012-12-11 20:53:00
4:45 PM,78.8,77.0,94,29.95,10.0,South,13.8,-,N/A,,Partly Cloudy,170,2012-12-11 21:45:00
4:53 PM,78.1,77.0,96,29.96,10.0,SSE,10.4,-,N/A,,Scattered Clouds,160,2012-12-11 21:53:00
5:18 PM,78.8,77.0,94,29.96,10.0,SSE,11.5,-,N/A,,Mostly Cloudy,160,2012-12-11 22:18:00
5:53 PM,78.1,77.0,96,29.96,10.0,SSE,11.5,-,N/A,,Mostly Cloudy,160,2012-12-11 22:53:00
6:25 PM,77.0,77.0,100,29.96,10.0,South,12.7,17.3,N/A,,Mostly Cloudy,170,2012-12-11 23:25:00
6:27 PM,77.0,77.0,100,29.97,10.0,SSE,9.2,-,N/A,,Mostly Cloudy,160,2012-12-11 23:27:00
6:53 PM,77.0,75.9,96,29.98,10.0,South,11.5,-,N/A,,Mostly Cloudy,170,2012-12-11 23:53:00
7:51 PM,77.0,75.2,94,30.00,10.0,South,6.9,-,N/A,,Scattered Clouds,170,2012-12-12 00:51:00
7:53 PM,77.0,75.9,96,30.00,10.0,SSE,8.1,-,N/A,,Scattered Clouds,160,2012-12-12 00:53:00
8:26 PM,77.0,75.2,94,30.01,10.0,SSE,6.9,-,N/A,,Mostly Cloudy,160,2012-12-12 01:26:00
8:39 PM,77.0,75.2,94,30.02,10.0,South,6.9,-,N/A,,Scattered Clouds,170,2012-12-12 01:39:00
8:53 PM,77.0,75.9,96,30.04,10.0,South,5.8,-,N/A,,Scattered Clouds,180,2012-12-12 01:53:00
9:53 PM,77.0,75.9,96,30.06,10.0,South,4.6,-,N/A,,Partly Cloudy,180,2012-12-12 02:53:00
10:53 PM,77.0,75.9,96,30.06,10.0,Calm,Calm,-,N/A,,Scattered Clouds,0,2012-12-12 03:53:00
11:39 PM,75.2,75.2,100,30.06,10.0,SSE,3.5,-,N/A,,Mostly Cloudy,160,2012-12-12 04:39:00
11:45 PM,75.2,75.2,100,30.06,10.0,South,5.8,-,N/A,,Scattered Clouds,170,2012-12-12 04:45:00
11:53 PM,75.9,75.9,100,30.06,10.0,South,5.8,-,N/A,,Partly Cloudy,170,2012-12-12 04:53:00